Regional Weather Roundup
Issued by NWS Charleston, SC

Current Version | Previous Version | Graphics & Text | Print | Product List | Glossary On
Versions: 1 2 3 4 5 6 7 8 9 10 11 12 13 14 15 16 17 18 19 20 21 22 23 24 25 26 27 28 29 30 31 32 33 34 35 36 37 38 39 40 41 42 43 44 45 46 47 48 49 50
483 ASUS42 KCHS 251812 RWRCHS REGIONAL WEATHER ROUNDUP NATIONAL WEATHER SERVICE CHARLESTON SC 200 PM EDT TUE JUL 25 2017 NOTE: "FAIR" INDICATES FEW OR NO CLOUDS BELOW 12,000 FEET WITH NO SIGNIFICANT WEATHER AND/OR OBSTRUCTIONS TO VISIBILITY. NOT ALL STATIONS ARE QUALITY CONTROLLED. USE DATA WITH CAUTION... ESPECIALLY DEWPOINT OBSERVATIONS. SCZ027-030-031-034>040-042>050-251900- ...SOUTHEAST SOUTH CAROLINA... CITY SKY/WX TMP DP RH WIND PRES REMARKS N CHARLESTON MOSUNNY 92 74 55 VRB3 30.05S HX 101 6HR MIN TEMP: 78; 6HR MAX TEMP: 92; WATERFRONT PRK N/A 86 79 79 S5 30.05S HX 99 JOHNS ISLAND MOCLDY 88 81 79 S6 30.06F HX 105 PINOPOLIS N/A 88 77 70 CALM 29.99S HX 100 MONCKS CORNER FAIR 90 72 55 CALM 30.05F HX 96 SUMMERVILLE FAIR 91 73 55 CALM 30.07S HX 100 BEAUFORT MCAS PTSUNNY 88 78 72 VRB5 30.07S HX 101 6HR MIN TEMP: 77; 6HR MAX TEMP: 89; BEAUFORT ARPT NOT AVBL HILTON HEAD IS PTSUNNY 88 79 74 CALM 30.09R HX 102 WALTERBORO MOCLDY 88 75 66 NW5 30.07S HX 97 ALLENDALE NOT AVBL ...SOUTHERN MIDLANDS AND PEE DEE... CITY SKY/WX TMP DP RH WIND PRES REMARKS GEORGETOWN MOCLDY 88 79 74 SE7 30.06S HX 102 KINGSTREE FAIR 90 75 62 CALM 30.05S HX 100 ORANGEBURG CLOUDY 90 73 57 VRB3 30.06S HX 98 6HR MIN TEMP: 74; 6HR MAX TEMP: 91; BARNWELL MOCLDY 91 75 59 CALM 30.06F HX 102 AIKEN FAIR 90 73 58 W5 30.10F HX 98 MANNING CLOUDY 88 77 70 SW5 30.05S HX 100 COLUMBIA PTSUNNY 94 74 52 SW6 30.04F HX 104 6HR MIN TEMP: 76; 6HR MAX TEMP: 94; SUMTER PTSUNNY 91 74 58 CALM 30.03F HX 100 6HR MIN TEMP: 77; 6HR MAX TEMP: 92; FLORENCE MOSUNNY 90 76 63 VRB3 30.05F HX 101 6HR MIN TEMP: 77; 6HR MAX TEMP: 91; MYRTLE BEACH MOSUNNY 88 77 70 S15 30.05 HX 100 N MYRTLE BEACH SUNNY 87 77 72 S10 30.04F HX 99 6HR MIN TEMP: 78; 6HR MAX TEMP: 88; $$ GAZ063-065-086>088-099>101-113>116-118-119-134>141-150-251900- ...SOUTHEAST GEORGIA... CITY SKY/WX TMP DP RH WIND PRES REMARKS SAVANNAH ARPT PTSUNNY 92 73 53 VRB3 30.08S HX 100 6HR MIN TEMP: 77; 6HR MAX TEMP: 92; 6HR PCP: TRACE; HUNTER AAF PTSUNNY 89 76 65 SW6 30.05S HX 99 6HR MIN TEMP: 76; 6HR MAX TEMP: 90; 6HR PCP: TRACE; FORT STEWART PTSUNNY 88 73 59 SW5 30.06S HX 96 6HR MIN TEMP: 78; 6HR MAX TEMP: 89; STATESBORO MOSUNNY 90 76 63 SW7 30.08S HX 102 SYLVANIA PTCLDY 89 79 73 SW3 30.08F HX 105 CLAXTON FAIR 91 76 61 S3 30.07F HX 102 ...CSRA...CENTRAL AND FAR SOUTHEAST GEORGIA... CITY SKY/WX TMP DP RH WIND PRES REMARKS THOMSON CLOUDY 88 75 65 W3 30.12F HX 97 AUGUSTA-BUSH CLOUDY 92 75 57 CALM 30.05S HX 103 6HR MIN TEMP: 76; 6HR MAX TEMP: 94; 6HR PCP: TRACE; AUGUSTA-DANIEL CLOUDY 91 70 49 CALM 30.07F HX 96 SWAINSBORO MOCLDY 88 73 62 CALM 30.08F HX 96 VIDALIA MOSUNNY 90 73 58 CALM 30.08F HX 98 EASTMAN CLOUDY 89 64 44 W5 30.10F HX 90 HAZLEHURST HVY RAIN 83 78 86 N14 30.07F HX 93 ALMA SUNNY 91 73 55 SW12 30.08F HX 99 6HR MIN TEMP: 77; 6HR MAX TEMP: 91; WAYCROSS MOSUNNY 94 77 57 SW8 30.08F HX 108 JESUP NOT AVBL BAXLEY FAIR 90 79 70 SW10 30.08S HX 105 BRUNSWICK MOSUNNY 84 79 84 W3 30.10S HX 96 SAINT SIMONS CLOUDY 89 76 65 W3 30.09F HX 100 6HR MIN TEMP: 79; 6HR MAX TEMP: 89; 6HR PCP: 0.02; $$ SCZ027-028-034-036>038-045-046-048>050-GAZ119-141-251900- ...LAKE AND SUPPLEMENTAL COASTAL OBSERVATIONS... STATION/POSITION TIME TEMP WIND PRES WAVE SWELL AIR SEA DIR/SP/G HT/PER HT/PER/DIR (UTC) (F) (DEG/KT/KT) (MB) (FT/S) (FT/S/D) WINYAH BAY 1645 85 130/ 7 1018.0 LAKE MURRAY NOT AVBL ACE BASIN NERRS 1645 88 180/ 1 1018.0 FORT PULASKI 1742 86 85 330/ 3/ 3 1018.8R SAPELO ISLAND 1700 88 260/ 4 1019.0 $$ ANZ835-935-AMZ111-154-330-350-352-354-370-450-454-472-251900- ...C-MAN AND BUOY OBSERVATIONS... STATION/POSITION TIME TEMP WIND PRES WAVE SWELL AIR SEA DIR/SP/G HT/PER HT/PER/DIR (UTC) (F) (DEG/KT/KT) (MB) (FT/S) (FT/S/D) BUOY 41004 1750 81 83 230/ 10/ 12 1018.0F 3/ 5 2/190/ 5 BUOY 41008 1750 81 82 200/ 8/ 10 1018.8S 2/10 2/160/10 FOLLY BEACH CMAN 1700 83 200/ 10/ 12 1018.8R CAPERS NEARSHORE NOT AVBL FRIPP NEARSHORE 1708 83 86 240/ 6/ 8 1018.3R STATION/POSITION TIME TEMP WIND PRES WAVE SWELL AIR SEA DIR/SP/G HT/PER HT/PER/DIR (UTC) (F) (DEG/KT/KT) (MB) (FT/S) (FT/S/D) 5E ST. MARYS GA 1730 80 N/A 1/ 9 FRYING PAN BUOY 1750 82 82 230/ 8/ 10 1017.9F 4/ 6 3/170/ 6 BUOY 41025 1750 81 84 250/ 6/ 8 1017.9R 4/ 7 3/200/ 7 CAPE LOOKOUT NC 1700 83 220/ 8/ 11 1017.3S BUOY 41002 1750 80 83 270/ 14/ 17 1020.1F 5/ 6 2/110/11 BUOY 41010 1750 84 84 260/ 8/ 10 1020.5F 3/ 8 2/110/ 8 ST AUGUSTINE FL 1800 80 76 140/ 11/ 11 1020.0F $$

USA.gov is the U.S. government's official web portal to all federal, state and local government web resources and services.